User: anonymous   Login
Location: Unspecified
(43.4354°N, 0.0000°E)
Time: 17:44:46
(UTC+00:00)
Language:

Vanguard 1 - Orbit

View from above orbital plane
View from above orbital plane
View from above satellite
View from above satellite

Ground track
Ground track

The orbit data is extracted from the following two-line orbital elements,

1     5U 58002B   19170.46455927  .00000009  00000-0  13261-4 0  9996
2     5  34.2436 269.4211 1841886 154.5352 215.8817 10.84762265165820
Epoch (UTC): 19 June 2019 11:08:57
Eccentricity: 0.1841886
inclination: 34.2436°
perigee height: 654 km
apogee height: 3829 km
right ascension of ascending node: 269.4211°
argument of perigee: 154.5352°
revolutions per day: 10.84762265
mean anomaly at epoch: 215.8817°
orbit number at epoch: 16582

The dashed part of the orbit path shows where the satellite is in the earth's shadow,  

DLR